Voltar ao catálogo

CANX-4

AtivoCiênciaSSO
NORAD 40055·PAYLOAD·🇨🇦 Canada

Lançado Jun 30, 2014 de Satish Dhawan Space Centre

Loading…

Próximas Passagens (próximas 24 horas)

TLE

AtualizadoSource: Space-Track

Época: Sep 14, 2026, 02:41 UTC

1 40055U 14034C   26257.11198690  .00000671  00000-0  92968-4 0  9995
2 40055  98.2966 135.6303 0014055  85.3763 274.9053 14.81393410657691

Acompanhe CANX-4 em tempo real com AllMySat

Download on the App Store